Flag for U.S.A. Weather past 2 weeks in Vancouver, Washington, U.S.A.

Now
83 °F

Sunny.


Feels Like: 82 °F
Forecast: 61 / 86 °F
Wind: 12 mph from Northwest

Location: Vancouver - Pearson Airpark

Current Time: Jul 30, 2014 at 9:03:28 PM

Latest Report: Jul 30, 2014 at 7:53 PM


Visibility: 10 mi

Pressure: 30.00 "Hg

Humidity: 41%

Dew point: 57 °F

Location of VancouverLocation

Historic Weather in Vancouver — Graph

°F

Vancouver temperature yesterday

Maximum temperature yesterday: 89 °F (at 4:53 PM)
Minimum temperature yesterday: 62 °F (at 5:53 AM)
Average temperature yesterday: 74 °F

Past Weeks' High & Low Weather Summary

 TemperatureHumidityPressure
High91 °F (Jul 28, 4:53 PM)93% (Jul 22, 7:01 AM)30.26 "Hg (Jul 22, 7:01 AM)
Low52 °F (Jul 25, 5:53 AM)25% (Jul 27, 6:53 PM)29.89 "Hg (Jul 16, 6:53 PM)
Average69 °F61%30.05 "Hg
* Reported Jul 15 7:53 PM — Jul 30 7:53 PM, Vancouver, Weather by CustomWeather, © 2014

Note: Actual official high and low records may vary slightly from our data, if they occured in-between our weather recording intervals... More about our weather records

Advertising

Vancouver weather history for previous 24 hours

 ConditionsComfort  
Time TempWeatherWind HumidityBarometerVisibility
7:53 PM
Jul 30
83 °FSunny.12 mph41%30.00 "Hg10 mi
6:53 PM87 °FSunny.9 mph35%29.99 "Hg10 mi
5:53 PM88 °FSunny.13 mph31%29.99 "Hg10 mi
4:53 PM88 °FSunny.13 mph33%30.01 "Hg10 mi
3:53 PM86 °FSunny.10 mph37%30.03 "Hg10 mi
2:53 PM84 °FSunny.9 mph37%30.04 "Hg10 mi
1:53 PM82 °FSunny.7 mph43%30.06 "Hg10 mi
12:53 PM78 °FSunny.9 mph48%30.09 "Hg10 mi
11:53 AM74 °FSunny.6 mph56%30.10 "Hg10 mi
10:53 AM71 °FSunny.10 mph61%30.11 "Hg10 mi
9:53 AM67 °FSunny.7 mph68%30.12 "Hg10 mi
8:53 AM63 °FOvercast.7 mph75%30.13 "Hg10 mi
7:53 AM61 °FOvercast.5 mph81%30.13 "Hg10 mi
6:53 AM60 °FScattered clouds.6 mph83%30.12 "Hg10 mi
5:53 AM60 °FClear.3 mph83%30.11 "Hg10 mi
4:53 AM61 °FClear.3 mph81%30.10 "Hg10 mi
3:53 AM62 °FClear.3 mph78%30.10 "Hg10 mi
2:53 AM63 °FClear.6 mph75%30.10 "Hg10 mi
1:53 AM65 °FClear.3 mph68%30.09 "Hg10 mi
12:53 AM67 °FClear.5 mph63%30.08 "Hg10 mi
11:53 PM
Jul 29
68 °FClear.7 mph61%30.07 "Hg10 mi
10:53 PM71 °FClear.7 mph55%30.07 "Hg10 mi
9:53 PM73 °FClear.8 mph51%30.06 "Hg10 mi
Weather by CustomWeather, © 2014

See weather overviewHow to use our weather pages